22:06
Airports
History
Links
Donate
Help keep this website running!
PayPal
Bitcoin
This page is community maintained. The information is intended for PC simulator navigation or reference.
Always use approved charts for navigation.
EDSL
Blumberg
Blumberg (EDSL)
Blumberg, Baden-Wurttemberg, Germany (78176)
(C)
Lat/Lng:47° 50' 38.94" N / 8° 33' 52.78" E
47.844149 / 8.564661
Elevation:2300'ft / 701mMSL
ID / ICAO:EDSL
Runways:1
Longest:06-24
1,014m / 3,326ft
Controlled:Yes
Nearby Weather21:50 GMT 2017-10-17
Nearby weather at LSZH, Zurich located 26.3 nautical miles from EDSL
Altimeter: 30.12
Visibility: 6.2 statute miles
Wind: 0 knots (from 000°)
Temp: 10°c / 50°f
Humidity: 93.5%

METAR: LSZH 172150Z 00000KT 9999 MIFG NSC 10/09 Q1020 NOSIG

(Powered by phpweather)
Airport Radio Frequencies
Tower: 123.05
Nearby VORs <50NM
Nearby NDBs
Runway 06 / 24
Dimensions:1013.9 x 50m 3326' x 164'ft
Surface:
Runway 06 [A]Runway 24 [B]
Heading:066°TH 246°TH
Lat:
Lng:
47° 50' 32.42"N
8° 33' 30.44"E
47° 50' 45.45"N
8° 34' 15.12"E
User Notes and Comments
47° 50' 38.94" N / 8° 33' 52.78" E
Distance To
Airport ID:
Nearby Airports
(U) DONAUESCHINGEN VILLINGEN 9.2 NM
EDTD NNW 347°
4 Schaffhausen 10.8 NM
LSPF S 189°
(U) Schwenningen 15.3 NM
EDTS N
(U) NEUHAUSEN OB ECK 18.2 NM
EDSN ENE 59°
4 Winterthur 24.7 NM
LSPH SSE 157°
(U) Rottweil Zepfenhahn 24.8 NM
EDSZ NNE 17°
(C) Zurich 26.3 NM
LSZH ( WX ) S 181°
VFR Chart
Flight Planning at SkyVector.com